This is the latest recevied weather packets stored in our database for station/object WB5HZM-3. If no packets are shown the sender has not sent any weather packets the latest 10 day(s).
| Time | Temp. | Humidity | Pressure | Rain* | Wind** | Luminosity | Snow |
|---|---|---|---|---|---|---|---|
| 1777755797 | 22.78° C | 51% | 1019.8 hPa | 0 mm | - | - | - |
| 1777755212 | 22.78° C | 53% | 1019.9 hPa | 0 mm | - | - | - |
| 1777754613 | 22.22° C | 50% | 1020 hPa | 0 mm | - | - | - |
| 1777754008 | 22.22° C | 53% | 1020 hPa | 0 mm | - | - | - |
| 1777753404 | 22.22° C | 51% | 1020.1 hPa | 0 mm | - | - | - |
| 1777752803 | 21.67° C | 52% | 1020.2 hPa | 0 mm | - | - | - |
| 1777752200 | 21.67° C | 51% | 1020.3 hPa | 0 mm | - | - | - |
| 1777751596 | 21.67° C | 51% | 1020.4 hPa | 0 mm | - | - | - |
| 1777751012 | 21.11° C | 55% | 1020.7 hPa | 0 mm | - | - | - |
| 1777750412 | 21.11° C | 55% | 1020.8 hPa | 0 mm | - | - | - |
| 1777749808 | 21.11° C | 57% | 1020.9 hPa | 0 mm | - | - | - |
| 1777749203 | 21.11° C | 56% | 1021 hPa | 0 mm | - | - | - |
| 1777748603 | 21.11° C | 55% | 1021.2 hPa | 0 mm | - | - | - |
| 1777747999 | 20.56° C | 54% | 1021.2 hPa | 0 mm | - | - | - |
| 1777747414 | 20.56° C | 55% | 1021.3 hPa | 0 mm | - | - | - |
| 1777746808 | 20.56° C | 57% | 1021.4 hPa | 0 mm | - | - | - |
| 1777746207 | 20.56° C | 59% | 1021.4 hPa | 0 mm | - | - | - |
| 1777745602 | 20.56° C | 57% | 1021.6 hPa | 0 mm | - | - | - |
| 1777744999 | 20° C | 58% | 1021.7 hPa | 0 mm | - | - | - |
| 1777744398 | 20° C | 60% | 1021.9 hPa | 0 mm | - | - | - |
| 1777743813 | 20° C | 59% | 1021.9 hPa | 0 mm | - | - | - |
| 1777743209 | 19.44° C | 59% | 1022 hPa | 0 mm | - | - | - |
| 1777742608 | 19.44° C | 62% | 1022.2 hPa | 0.25 mm | - | - | - |
| 1777742003 | 19.44° C | 65% | 1022.2 hPa | 0.25 mm | - | - | - |
| 1777741397 | 19.44° C | 62% | 1022.2 hPa | 0.25 mm | - | - | - |
* Rain latest hour (hover to see other rain measurements)
** Current wind speed in m/s (hover to see current wind gust speed)